User: anonymous   Login
Location: Trebic
(49.2170°N, 15.8830°E)
Time: 01:08:37
(UTC+02:00)
Language:

Vanguard 3 - Orbit

View from above orbital plane
View from above orbital plane
View from above satellite
View from above satellite

Ground track
Ground track

The orbit data is extracted from the following two-line orbital elements,

1    20U 59007A   20217.59761821 +.00000289 +00000-0 +11447-3 0  9993
2    20 033.3454 010.5627 1665209 162.1342 204.5735 11.55702827236178
Epoch (UTC): 04 August 2020 14:20:34
Eccentricity: 0.1665209
inclination: 33.3454°
perigee height: 509 km
apogee height: 3261 km
right ascension of ascending node: 10.5627°
argument of perigee: 162.1342°
revolutions per day: 11.55702827
mean anomaly at epoch: 204.5735°
orbit number at epoch: 23617

The dashed part of the orbit path shows where the satellite is in the earth's shadow,  

DLR